Epoch = 2016 Jan. 13.0 TT T = 2016 Jan. 15.33940 TT Peri. = 105.08460 e = 0.1185305 Node = 176.05154 2000.0 q = 2.3317835 AU Incl. = 5.22248 a = 2.6453367 AU n = 0.22907761 P = 4.30 years
m1 = 15.5 + 5 logΔ + 10.0 log r